Ely, MN

6:44 PM CST on February 23, 2017 (GMT -0600)
Ely Municipal

Weather History for KELO - March, 2013

Change the Weather History Date:

Saturday, March 16, 2013

  Actual Average Record
Temperature  
Mean Temperature 6 °F -  
Max Temperature 15 °F 33 °F 66 °F (2012)
Min Temperature -5 °F 10 °F -23 °F (1997)
Degree Days  
Heating Degree Days 58    
Moisture  
Dew Point -2 °F    
Average Humidity 70    
Maximum Humidity 92    
Minimum Humidity 45    
Precipitation  
Precipitation 0.01 in - - ()
Sea Level Pressure  
Sea Level Pressure 30.02 in    
Wind  
Wind Speed 5 mph (WNW)    
Max Wind Speed 21 mph    
Max Gust Speed 29 mph    
Visibility 8 miles    
Events Snow    
Averages and records for this station are not official NWS values.
T = Trace of Precipitation, MM = Missing Value Source: NWS Daily Summary

Daily Weather History Graph

Daily Weather History Graph

Search for Another Location

Airport or City:

Trip Planner

Search our weather history database for the weather conditions in past years. The results will help you decide how hot, cold, wet, or windy it might be!

Date:

Astronomy

Mar. 16, 2013 Rise Set
Actual Time 7:17 AM CDT 7:14 PM CDT
Civil Twilight 6:47 AM CDT 7:45 PM CDT
Nautical Twilight 6:11 AM CDT 8:21 PM CDT
Astronomical Twilight 5:34 AM CDT 8:58 PM CDT
Moon 9:25 AM CDT (3/16) No Moon Set
Length of Visible Light 12h 58m
Length of Day
11h 56m
Waxing Crescent, 23% of the Moon is Illuminated
Mar 16
Waxing Crescent
Mar 19
First Quarter
Mar 27
Full
Apr 2
Last Quarter
Apr 10
New

Hourly Weather History & Observations

Time (CDT) Temp. Windchill Dew Point Humidity Pressure Visibility Wind Dir Wind Speed Gust Speed Precip Events Conditions
12:13 AM 8.6 °F - 5.0 °F 85% 29.99 in 2.5 mi Calm Calm - N/A Snow Light Snow
12:33 AM 8.6 °F 0.1 °F 3.2 °F 79% 29.98 in 2.0 mi NNE 4.6 mph - 0.01 in Snow Light Snow
12:52 AM 8.6 °F 0.1 °F 3.2 °F 79% 29.98 in 2.0 mi NNE 4.6 mph - 0.01 in Snow Light Snow
1:13 AM 8.6 °F - 5.0 °F 85% 29.98 in 4.0 mi Calm Calm - N/A Snow Light Snow
1:33 AM 6.8 °F -0.1 °F 3.2 °F 85% 29.98 in 4.0 mi NNE 3.5 mph - N/A Snow Light Snow
1:52 AM 6.8 °F - 3.2 °F 85% 29.99 in 4.0 mi Calm Calm - N/A Snow Light Snow
2:13 AM 6.8 °F -0.1 °F 3.2 °F 85% 29.99 in 4.0 mi North 3.5 mph - N/A Snow Light Snow
2:33 AM 6.8 °F - 3.2 °F 85% 30.00 in 7.0 mi Calm Calm - N/A Snow Light Snow
2:52 AM 5.0 °F - 1.4 °F 85% 30.00 in 10.0 mi Calm Calm - N/A   Scattered Clouds
3:13 AM 3.2 °F - 1.4 °F 92% 30.00 in 7.0 mi Calm Calm - N/A Snow Light Snow
3:31 AM 3.2 °F - 1.4 °F 92% 29.99 in 10.0 mi Calm Calm - N/A Snow Light Snow
3:53 AM 1.4 °F - -0.4 °F 92% 29.99 in 10.0 mi Calm Calm - N/A   Clear
4:13 AM 1.4 °F - -0.4 °F 92% 30.00 in 10.0 mi Calm Calm - N/A   Clear
4:33 AM 1.4 °F - -2.2 °F 85% 30.01 in 7.0 mi Calm Calm - N/A Snow Light Snow
4:53 AM 1.4 °F - -0.4 °F 92% 30.00 in 10.0 mi Calm Calm - N/A   Overcast
5:13 AM 1.4 °F - -0.4 °F 92% 30.00 in 4.0 mi Calm Calm - N/A Snow Light Snow
5:33 AM -0.4 °F - -2.2 °F 92% 30.01 in 2.5 mi Calm Calm - N/A Snow Light Snow
5:53 AM 1.4 °F - -2.2 °F 85% 30.01 in 7.0 mi Calm Calm - N/A Snow Light Snow
6:13 AM 1.4 °F - -2.2 °F 85% 30.02 in 2.5 mi Calm Calm - N/A Snow Light Snow
6:32 AM 1.4 °F - -0.4 °F 92% 30.02 in 5.0 mi Calm Calm - N/A Snow Light Snow
6:53 AM 1.4 °F - -0.4 °F 92% 30.02 in 3.0 mi Calm Calm - N/A Snow Light Snow
7:13 AM 1.4 °F - -0.4 °F 92% 30.02 in 4.0 mi Calm Calm - N/A Snow Light Snow
7:32 AM 1.4 °F -6.2 °F -2.2 °F 85% 30.03 in 2.5 mi NW 3.5 mph - N/A Snow Light Snow
7:53 AM 1.4 °F -6.2 °F -2.2 °F 85% 30.03 in 3.0 mi NW 3.5 mph - N/A Snow Light Snow
8:13 AM 3.2 °F - -0.4 °F 85% 30.03 in 7.0 mi Calm Calm - N/A Snow Light Snow
8:32 AM 3.2 °F -4.2 °F -0.4 °F 85% 30.02 in 10.0 mi NW 3.5 mph - N/A   Overcast
8:53 AM 3.2 °F -4.2 °F -0.4 °F 85% 30.02 in 10.0 mi West 3.5 mph - N/A Snow Light Snow
9:13 AM 3.2 °F -4.2 °F -0.4 °F 85% 30.02 in 7.0 mi NNW 3.5 mph - N/A   Clear
9:32 AM 6.8 °F -2.0 °F -0.4 °F 72% 30.02 in 7.0 mi WNW 4.6 mph - N/A   Scattered Clouds
9:53 AM 6.8 °F -2.0 °F -0.4 °F 72% 30.01 in 10.0 mi West 4.6 mph - N/A   Scattered Clouds
10:13 AM 6.8 °F -5.9 °F -0.4 °F 72% 30.01 in 10.0 mi West 8.1 mph - N/A Snow Light Snow
10:32 AM 8.6 °F 0.1 °F -0.4 °F 67% 30.01 in 10.0 mi West 4.6 mph - N/A   Scattered Clouds
10:53 AM 10.4 °F -0.4 °F -0.4 °F 62% 30.01 in 10.0 mi West 6.9 mph - N/A   Scattered Clouds
11:12 AM 10.4 °F 0.8 °F -0.4 °F 62% 30.01 in 10.0 mi NW 5.8 mph - N/A   Scattered Clouds
11:33 AM 12.2 °F -1.8 °F -0.4 °F 57% 30.00 in 10.0 mi WNW 11.5 mph - N/A   Scattered Clouds
11:53 AM 12.2 °F -3.1 °F -0.4 °F 57% 30.00 in 10.0 mi WNW 13.8 mph 17.3 mph N/A   Clear
12:12 PM 12.2 °F 1.7 °F -0.4 °F 57% 30.00 in 10.0 mi West 6.9 mph - N/A   Scattered Clouds
12:33 PM 12.2 °F -0.2 °F -0.4 °F 57% 30.00 in 10.0 mi West 9.2 mph - N/A   Mostly Cloudy
12:53 PM 14.0 °F 0.5 °F 1.4 °F 57% 29.99 in 10.0 mi West 11.5 mph 16.1 mph N/A   Mostly Cloudy
1:13 PM 14.0 °F 2.0 °F -0.4 °F 53% 29.99 in 10.0 mi WNW 9.2 mph 19.6 mph N/A   Mostly Cloudy
1:33 PM 15.8 °F 1.4 °F 1.4 °F 53% 29.98 in 10.0 mi West 13.8 mph 21.9 mph N/A   Mostly Cloudy
1:52 PM 14.0 °F -1.4 °F -0.4 °F 53% 29.98 in 10.0 mi West 15.0 mph 21.9 mph N/A   Mostly Cloudy
2:13 PM 15.8 °F 0.9 °F -0.4 °F 49% 29.97 in 10.0 mi WNW 15.0 mph 23.0 mph N/A   Mostly Cloudy
2:33 PM 15.8 °F 2.1 °F -0.4 °F 49% 29.97 in 10.0 mi WNW 12.7 mph 23.0 mph N/A   Overcast
2:53 PM 15.8 °F 0.9 °F -0.4 °F 49% 29.97 in 10.0 mi WNW 15.0 mph 20.7 mph N/A   Overcast
3:13 PM 15.8 °F 0.9 °F -0.4 °F 49% 29.97 in 10.0 mi West 15.0 mph 24.2 mph N/A   Overcast
3:33 PM 15.8 °F -0.2 °F -0.4 °F 49% 29.97 in 10.0 mi WNW 17.3 mph 23.0 mph N/A   Overcast
3:52 PM 14.0 °F -0.8 °F 1.4 °F 57% 29.97 in 10.0 mi WNW 13.8 mph 21.9 mph N/A   Mostly Cloudy
4:13 PM 14.0 °F -0.8 °F 1.4 °F 57% 29.97 in 7.0 mi West 13.8 mph 23.0 mph N/A   Mostly Cloudy
4:33 PM 12.2 °F -5.3 °F -0.4 °F 57% 29.97 in 10.0 mi WNW 18.4 mph 24.2 mph N/A   Overcast
4:52 PM 14.0 °F -2.5 °F -2.2 °F 49% 29.98 in 10.0 mi West 17.3 mph 26.5 mph N/A   Overcast
5:13 PM 14.0 °F -3.9 °F -2.2 °F 49% 29.98 in 10.0 mi WNW 20.7 mph 28.8 mph N/A   Mostly Cloudy
5:33 PM 12.2 °F -4.8 °F -4.0 °F 48% 29.99 in 10.0 mi West 17.3 mph 28.8 mph N/A   Overcast
5:52 PM 12.2 °F -4.8 °F -5.8 °F 45% 30.00 in 10.0 mi WNW 17.3 mph 27.6 mph N/A   Scattered Clouds
6:13 PM 12.2 °F -4.3 °F -5.8 °F 45% 30.01 in 10.0 mi WNW 16.1 mph 27.6 mph N/A   Mostly Cloudy
6:32 PM 10.4 °F -4.1 °F -4.0 °F 52% 30.02 in 10.0 mi NW 11.5 mph 21.9 mph N/A   Mostly Cloudy
6:52 PM 8.6 °F -7.7 °F -4.0 °F 57% 30.04 in 10.0 mi NW 13.8 mph 20.7 mph N/A   Scattered Clouds
7:13 PM 6.8 °F -8.6 °F -5.8 °F 56% 30.05 in 10.0 mi NW 11.5 mph 18.4 mph N/A   Clear
7:32 PM 6.8 °F -9.3 °F -5.8 °F 56% 30.06 in 10.0 mi NW 12.7 mph 17.3 mph N/A   Clear
7:52 PM 6.8 °F -3.5 °F -2.2 °F 67% 30.07 in 10.0 mi NW 5.8 mph 17.3 mph N/A   Scattered Clouds
8:13 PM 5.0 °F -6.9 °F -4.0 °F 66% 30.08 in 10.0 mi NW 6.9 mph - N/A   Clear
8:33 PM 3.2 °F -7.8 °F -7.6 °F 61% 30.09 in 10.0 mi NW 5.8 mph - N/A   Clear
8:52 PM 3.2 °F -4.2 °F -7.6 °F 61% 30.11 in 10.0 mi NW 3.5 mph - N/A   Clear
9:13 PM 1.4 °F -9.9 °F -7.6 °F 66% 30.12 in 10.0 mi WNW 5.8 mph - N/A   Clear
9:33 PM 1.4 °F -8.3 °F -7.6 °F 66% 30.13 in 10.0 mi WNW 4.6 mph - N/A   Clear
9:52 PM -0.4 °F -10.4 °F -7.6 °F 72% 30.14 in 10.0 mi WNW 4.6 mph - N/A   Clear
10:13 PM -0.4 °F -10.4 °F -9.4 °F 66% 30.14 in 10.0 mi WNW 4.6 mph - N/A   Clear
10:32 PM -0.4 °F -8.3 °F -7.6 °F 72% 30.15 in 10.0 mi WNW 3.5 mph - N/A   Clear
10:53 PM -2.2 °F -10.4 °F -9.4 °F 71% 30.15 in 10.0 mi NW 3.5 mph - N/A   Clear
11:13 PM -2.2 °F -12.5 °F -7.6 °F 78% 30.15 in 10.0 mi NW 4.6 mph - N/A   Clear
11:32 PM -2.2 °F -12.5 °F -7.6 °F 78% 30.16 in 10.0 mi NW 4.6 mph - N/A   Clear
11:53 PM -5.8 °F -14.5 °F -9.4 °F 84% 30.16 in 10.0 mi WNW 3.5 mph - N/A   Clear